Weather in Idrica

Russia / Pskov Oblast     56°19′55″N   28°53′13″E
temp.,
°C
wind,
m/s
gust,
m/s
humid.,
%
clouds,
%
prec.,
mm/h
press.,
hPa
HPBL,
m
25 october, mon
mon2500:00−1wsw22855 0.0 102928
03:000ssw2693100 0.0 1029133
06:000ssw3109542 0.0 1028254
09:00+1sw4119182 0.0 1028357
12:00+5sw510725 0.0 1027616
15:00+7sw511665 0.0 1025834
18:00+4ssw4127139 0.0 1024515
21:00+4ssw51475100 0.0 1023512
26 october, tue
tue2600:00+3ssw51377100 0.0 1023467
03:00+3ssw41378100 0.0 1022452
06:00+3ssw41377100 0.0 1020418
09:00+3ssw41375100 0.0 1019416
12:00+6sw41264100 0.0 1018519
15:00+7ssw41063100 0.0 1016609
18:00+6ssw41269100 0.0 1016507
21:00+5ssw41175100 0.0 1016430
27 october, wed
wed2700:00+4ssw41180100 0.0 1015396
03:00+5sw41282100 0.0 1013492
06:00+6sw41291100 0.7 1013627
09:00+7wsw41093100 0.7 1013850
12:00+8w4979100 0.1 10141128
15:00+8wsw51079100 0.3 10151044
18:00+8wsw41079100 0.0 1015856
21:00+7sw41186100 0.0 1014566
28 october, thu
thu2800:00+7ssw51394100 1.6 1012799
03:00+9wsw51394100 2.8 1011774
06:00+10w51294100 0.1 1011769
09:00+11w51292100 0.1 1012820
12:00+12wnw5118276 0.2 1014968
15:00+12wnw597418 0.3 10161152
18:00+9nw388098 0.1 1019535
21:00+6nnw239319 0.1 102183
29 october, fri
fri2900:00+7w1186100 0.0 102315
03:00+7s2387100 0.0 102483
06:00+8s3789100 0.0 1024230
09:00+8ssw2796100 0.1 1025241
12:00+12sw358434 0.0 1025444
15:00+13sw36745 0.0 1025519
18:00+10ssw26918 0.0 1026112
21:00+9s399666 0.0 1026191